This demonstration page uses our WeatherBlox Daily Observations layout. Learn more.

Left ArrowRight Arrow

34.02893, -84.19858

Hourly Observations for May 6, 2015

Temp ( °F °C ) Dew Point ( °F °C ) Humidity (%) Winds ( mph kmh ) Pressure ( in mb ) Visibility ( mi km ) Precip ( " mm )
12:53 am 00:53 Clear 60 15.6 53 11.7 78 78 Calm 30.22 1023 8 13 0.00 0.00
1:53 am 01:53 Clear 59 15 53 11.7 81 81 Calm 30.21 1023 8 13 0.00 0.00
2:53 am 02:53 Clear 57 13.9 52 11.1 83 83 Calm 30.19 1022 8 13 0.00 0.00
3:53 am 03:53 Clear 56 13.3 53 11.7 90 90 Calm 30.19 1022 7 11 0.00 0.00
4:53 am 04:53 Clear 54 12.2 52 11.1 93 93 Calm 30.19 1022 7 11 0.00 0.00
5:53 am 05:53 Clear with Mist and Fog 54 12.2 52 11.1 93 93 Calm 30.19 1022 6 10 0.00 0.00
6:53 am 06:53 Sunny with Mist and Fog 55 12.8 52 11.1 90 90 NNE 3 6 30.19 1023 5 8 0.00 0.00
7:53 am 07:53 Hazy 61 16.1 55 12.8 81 81 Calm 30.20 1023 5 8 0.00 0.00
8:53 am 08:53 Hazy 67 19.4 56 13.3 68 68 Calm 30.21 1023 6 10 0.00 0.00
9:53 am 09:53 Sunny 71 21.7 55 12.8 57 57 Calm 30.21 1023 7 11 0.00 0.00
10:53 am 10:53 Sunny 73 22.8 55 12.8 53 53 VRB 3 6 30.20 1023 7 11 0.00 0.00
11:53 am 11:53 Partly Cloudy 75 23.9 54 12.2 48 48 VRB 3 6 30.20 1023 8 13 0.00 0.00
12:53 pm 12:53 Mostly Cloudy 78 25.6 54 12.2 43 43 VRB 6 9 30.17 1022 8 13 0.00 0.00
1:53 pm 13:53 Partly Cloudy 78 25.6 53 11.7 42 42 ESE 5 7 30.15 1021 8 13 0.00 0.00
2:53 pm 14:53 Mostly Sunny 79 26.1 52 11.1 39 39 SSE 8 13 30.13 1020 8 13 0.00 0.00
3:53 pm 15:53 Sunny 80 26.7 51 10.6 37 37 SSE 8 13 30.11 1020 8 13 0.00 0.00
4:53 pm 16:53 Sunny 82 27.8 51 10.6 34 34 VRB 6 9 30.09 1019 8 13 0.00 0.00
5:53 pm 17:53 Sunny 80 26.7 52 11.1 38 38 E 6 9 30.09 1019 8 13 0.00 0.00
6:53 pm 18:53 Sunny 79 26.1 50 10 36 36 VRB 5 7 30.08 1019 8 13 0.00 0.00
7:53 pm 19:53 Sunny 77 25 50 10 39 39 Calm 30.07 1018 8 13 0.00 0.00
8:53 pm 20:53 Clear 72 22.2 53 11.7 52 52 Calm 30.08 1019 9 14 0.00 0.00
9:53 pm 21:53 Clear 65 18.3 54 12.2 68 68 Calm 30.10 1019 9 14 0.00 0.00
10:53 pm 22:53 Clear 64 17.8 55 12.8 73 73 Calm 30.11 1020 8 13 0.00 0.00
11:53 pm 23:53 Clear 61 16.1 55 12.8 81 81 Calm 30.11 1020 8 13 0.00 0.00

Powered by AerisWeather